STARLINK-11580, 63011

Orbit data source: Space-Track

STARLINK-11580, 63011 is a payload satellite owned by SpaceX/Seattle (US) in LEO that was launched on Sat, 15 Feb 2025 UTC via an FALCON 9 launch vehicle from the Air Force Eastern Test Range (AFETR). Payload-class satellites include a variety of spacecraft equipped with specific instruments for various scientific and technological missions. These include communications satellites like Starlink; space stations such as the ISS; scientific satellites like the Hubble; Earth observation satellites from companies like Planet Labs, Umbra, and HawkEye 360; GPS; miniature CubeSats for education and research; and military/defense satellites.

Loading next visibility...
Identifier
63011, 2025-032G
Orbit
LEO
Country
Flag of USUS
Related business
Manufacturer
SpaceX/Seattle
Mission
Operational Commercial Communications
Bus & Motor
STARLINK V2MD, Unknown motor
Mass
960 kg wet, ~910 kg dry
Launch date (UTC)
2025-02-15 (8 months ago)
Launch vehicle
FALCON 9
Launch site
Air Force Eastern Test Range (AFETR)
Object type
Payload
Rocket body
Debris
Shape & HBR
Box + 2 Pan, 18.1 m
Radar Cross Section
36.964 m², Large (>1 m²)

Expand to show TLE details & history
Last TLE update: 21 hours ago

TLE from 21 hours ago
0 STARLINK-11580
1 63011U 25032G   25301.29344633  .00163024  00000-0  12464-2 0  9993
2 63011  42.9984 273.1724 0001433 269.0650  91.0053 15.70893143 41244
Epoch: 2025-10-28T07:02Z
TLE epoch observation values (Epoch: 2025-10-28T07:02:33.762Z)
Latitude
-0.00007°
Longitude
130.64864°
Altitude
356.131 km
Speed
7.697 km/s
True Right ascension
18h 12m 41s
True Declination
0° 00' 00"
Sunlit
Object was in daylight at epoch
Visualization orbit readout
Latitude
Unknown
Longitude
Unknown
Altitude
Unknown
Speed
Unknown
Apparent Right ascension
Unknown
Apparent Declination
Unknown
Sunlit
N/A
Visualization observer readout
Local Sidereal Time
23:55:24
Azimuth
Unknown
Elevation
Unknown
Doppler factor
Unknown
Orbital elements
Apogee altitude
359.29 km
Perigee altitude
357.36 km
Semi-major axis
6,736.462 km
Eccentricity
0.00014
Inclination
42.9984°
RAAN
273.1724°
Arg. of periapsis
269.065°
True anomaly
91.02172°
Mean anomaly
91.0053°
Eccentric anomaly
91.01351°
Mean motion
3.9255 °/min
Orbital period
91.71 mins
BSTAR
0.0012464
Loading maneuver chart data...
Computing Atmospheric mass density...
Loading historical data...
Loading historical data...
Loading historical data...
Loading historical data...
Loading historical data...
Loading historical data...
Loading historical data...

Documentation

Showing up to 5 results
|